11P/Tempel-Swift-LINEAR (2020)

Japanese version
Home page
Updated on January 13, 2021

---------------------------------------------------------------------

* Profile

* Pictures

* Orbital Elements

Epoch 2020 Nov. 7.0 TT = JDT 2459160.5
T 2020 Nov. 26.26385 TT                                 MPC
q   1.3887544            (2000.0)            P               Q
n   0.16570285     Peri.  167.94706     +0.67810866     -0.70333318
a   3.2828376      Node   238.91608     +0.65193767     +0.70960720
e   0.5769652      Incl.   14.42110     +0.33933158     +0.04219075
P   5.95
From 47 observations 2001 Aug. 1-2014 Sept. 3, mean residual 0".7.

* Finding Charts

* Magnitudes Graph

        m1 = 17.0 + 5 log d +  10.0 log r  [   ,-44]  (             - 2020 Oct. 13)
        m1 = -6.5 + 5 log d + 150   log r  [-44,  0]  (2020 Oct. 13 - 2020 Nov. 26)
        m1 = 10.0 + 5 log d +  35   log r  [  0,   ]  (2020 Nov. 26 -             )

---------------------------------------------------------------------

The orbital elements are published on M.P.E.C. 2014-R70.
The charts are made with StellaNavigator Ver.10 (AstroArts).
The magnitudes graphs are made with Comet for Windows.

---------------------------------------------------------------------

Copyright(C) Seiichi Yoshida (comet@aerith.net). All rights reserved.